Precipitable_Water
0.22 0.16 0.12 0.14 0.15 0.15 0.18 0.17 0.16 0.18 0.22 0.18 0.14 0.13 0.15 0.17 0.18 0.18 0.18 0.18 0.19 0.19 0.24 0.27 0.29 0.34 0.40 0.50 0.56 0.66 0.73 0.78 0.80 0.80 0.79 0.82 0.80 0.87 0.92 0.96 1.03 1.09 1.18 1.20
0.20 0.13 0.17 0.20 0.21 0.18 0.17 0.15 0.14 0.16 0.21 0.19 0.15 0.12 0.15 0.16 0.14 0.15 0.15 0.16 0.17 0.19 0.22 0.24 0.28 0.31 0.35 0.40 0.50 0.60 0.68 0.72 0.73 0.75 0.77 0.80 0.79 0.80 0.84 0.92 0.94 0.99 1.06 1.14
0.17 0.19 0.21 0.20 0.20 0.19 0.18 0.14 0.14 0.15 0.21 0.20 0.16 0.12 0.12 0.15 0.17 0.18 0.18 0.17 0.17 0.18 0.20 0.24 0.27 0.30 0.33 0.36 0.43 0.53 0.61 0.68 0.71 0.73 0.75 0.76 0.78 0.76 0.72 0.74 0.78 0.89 0.98 1.02
0.20 0.24 0.21 0.19 0.18 0.19 0.14 0.19 0.18 0.17 0.15 0.10 0.19 0.09 0.11 0.12 0.13 0.15 0.15 0.17 0.18 0.19 0.21 0.22 0.25 0.31 0.32 0.34 0.41 0.47 0.53 0.59 0.64 0.68 0.66 0.64 0.60 0.57 0.61 0.66 0.73 0.75 0.88 0.94
0.17 0.19 0.18 0.17 0.17 0.20 0.17 0.22 0.20 0.19 0.17 0.16 0.13 0.12 0.10 0.13 0.12 0.14 0.14 0.17 0.19 0.22 0.23 0.24 0.26 0.28 0.33 0.37 0.39 0.44 0.49 0.52 0.56 0.59 0.63 0.63 0.61 0.62 0.65 0.68 0.69 0.72 0.76 0.85
0.23 0.29 0.24 0.21 0.23 0.23 0.26 0.22 0.20 0.20 0.17 0.10 0.12 0.10 0.09 0.10 0.11 0.14 0.17 0.17 0.20 0.22 0.24 0.27 0.29 0.32 0.34 0.38 0.40 0.44 0.45 0.49 0.55 0.58 0.61 0.61 0.60 0.62 0.62 0.63 0.64 0.68 0.72 0.77
0.21 0.21 0.26 0.28 0.21 0.26 0.25 0.19 0.11 0.11 0.13 0.08 0.14 0.11 0.12 0.14 0.14 0.15 0.15 0.16 0.21 0.23 0.23 0.24 0.26 0.28 0.30 0.34 0.40 0.44 0.47 0.48 0.54 0.57 0.60 0.63 0.64 0.65 0.63 0.65 0.68 0.70 0.71 0.73
0.16 0.15 0.23 0.26 0.22 0.18 0.20 0.18 0.11 0.08 0.09 0.11 0.18 0.10 0.12 0.17 0.17 0.17 0.18 0.18 0.20 0.22 0.25 0.24 0.28 0.32 0.36 0.39 0.42 0.45 0.48 0.50 0.54 0.58 0.61 0.65 0.68 0.70 0.70 0.71 0.73 0.74 0.75 0.76
0.21 0.20 0.30 0.30 0.29 0.26 0.22 0.17 0.22 0.16 0.16 0.13 0.13 0.14 0.17 0.18 0.16 0.17 0.18 0.20 0.20 0.25 0.29 0.31 0.36 0.38 0.40 0.41 0.44 0.48 0.51 0.53 0.56 0.59 0.62 0.65 0.69 0.72 0.72 0.74 0.77 0.79 0.81 0.81
0.32 0.23 0.31 0.33 0.34 0.31 0.27 0.29 0.19 0.20 0.12 0.10 0.10 0.11 0.11 0.15 0.17 0.18 0.21 0.23 0.26 0.30 0.32 0.34 0.37 0.41 0.43 0.46 0.50 0.54 0.56 0.55 0.58 0.61 0.63 0.65 0.68 0.72 0.74 0.76 0.75 0.77 0.81 0.83
0.43 0.35 0.30 0.33 0.28 0.24 0.26 0.24 0.25 0.24 0.20 0.13 0.10 0.11 0.17 0.18 0.22 0.23 0.27 0.32 0.34 0.35 0.35 0.37 0.41 0.44 0.46 0.50 0.53 0.55 0.57 0.58 0.59 0.62 0.64 0.65 0.67 0.70 0.73 0.74 0.76 0.77 0.80 0.82
0.49 0.43 0.32 0.31 0.38 0.38 0.33 0.26 0.27 0.20 0.18 0.21 0.18 0.12 0.21 0.23 0.25 0.27 0.29 0.32 0.35 0.36 0.41 0.44 0.45 0.47 0.50 0.54 0.56 0.56 0.57 0.57 0.59 0.62 0.63 0.65 0.67 0.69 0.70 0.73 0.76 0.79 0.78 0.81
0.54 0.43 0.33 0.33 0.39 0.42 0.35 0.34 0.33 0.31 0.28 0.21 0.18 0.13 0.22 0.26 0.28 0.30 0.31 0.34 0.37 0.40 0.43 0.47 0.49 0.50 0.52 0.55 0.56 0.56 0.58 0.58 0.61 0.63 0.63 0.64 0.65 0.67 0.69 0.72 0.75 0.77 0.77 0.78
0.63 0.51 0.41 0.32 0.39 0.44 0.37 0.39 0.39 0.37 0.30 0.24 0.26 0.22 0.24 0.28 0.30 0.32 0.34 0.38 0.41 0.44 0.47 0.49 0.51 0.53 0.56 0.56 0.56 0.57 0.58 0.62 0.63 0.64 0.63 0.63 0.65 0.68 0.69 0.73 0.75 0.75 0.76 0.74
0.55 0.40 0.46 0.46 0.47 0.49 0.47 0.47 0.46 0.42 0.38 0.34 0.30 0.33 0.27 0.35 0.38 0.42 0.45 0.47 0.49 0.49 0.52 0.52 0.52 0.52 0.55 0.56 0.56 0.57 0.59 0.61 0.63 0.61 0.62 0.62 0.65 0.68 0.69 0.71 0.73 0.75 0.74 0.72
0.56 0.40 0.43 0.36 0.42 0.45 0.41 0.44 0.43 0.43 0.40 0.41 0.38 0.37 0.39 0.43 0.45 0.44 0.44 0.49 0.48 0.50 0.50 0.50 0.53 0.54 0.54 0.54 0.53 0.54 0.56 0.58 0.59 0.59 0.59 0.62 0.63 0.66 0.67 0.69 0.70 0.71 0.69 0.68
0.47 0.41 0.38 0.28 0.39 0.39 0.35 0.35 0.41 0.39 0.42 0.41 0.35 0.35 0.41 0.40 0.42 0.43 0.48 0.51 0.47 0.48 0.49 0.50 0.52 0.51 0.53 0.54 0.56 0.55 0.57 0.58 0.57 0.57 0.58 0.61 0.64 0.64 0.66 0.68 0.69 0.67 0.66 0.67
0.31 0.30 0.32 0.25 0.33 0.21 0.27 0.35 0.39 0.40 0.41 0.45 0.47 0.47 0.43 0.45 0.45 0.46 0.54 0.51 0.48 0.52 0.53 0.53 0.54 0.53 0.54 0.56 0.56 0.57 0.56 0.56 0.56 0.56 0.58 0.61 0.62 0.63 0.65 0.66 0.66 0.66 0.67 0.66
0.30 0.28 0.24 0.20 0.21 0.26 0.26 0.24 0.28 0.29 0.29 0.38 0.37 0.39 0.41 0.46 0.48 0.42 0.53 0.54 0.54 0.56 0.57 0.56 0.55 0.53 0.54 0.53 0.54 0.54 0.54 0.55 0.55 0.55 0.58 0.60 0.62 0.63 0.63 0.63 0.64 0.65 0.66 0.66
0.20 0.22 0.19 0.16 0.14 0.10 0.09 0.10 0.16 0.22 0.17 0.28 0.32 0.35 0.37 0.41 0.34 0.38 0.51 0.55 0.54 0.57 0.58 0.53 0.54 0.52 0.50 0.52 0.55 0.54 0.54 0.55 0.55 0.57 0.58 0.61 0.62 0.62 0.62 0.63 0.64 0.64 0.65 0.65
0.15 0.18 0.16 0.16 0.15 0.19 0.18 0.18 0.25 0.16 0.15 0.32 0.35 0.38 0.39 0.35 0.38 0.41 0.46 0.47 0.52 0.53 0.54 0.55 0.52 0.49 0.50 0.55 0.56 0.54 0.55 0.55 0.57 0.60 0.61 0.62 0.62 0.61 0.63 0.64 0.65 0.65 0.64 0.64
0.09 0.11 0.12 0.15 0.14 0.12 0.20 0.21 0.21 0.32 0.37 0.38 0.37 0.35 0.35 0.37 0.37 0.40 0.40 0.43 0.44 0.44 0.47 0.51 0.48 0.49 0.51 0.53 0.55 0.54 0.53 0.56 0.58 0.59 0.59 0.59 0.60 0.61 0.61 0.60 0.60 0.59 0.59 0.59
0.10 0.11 0.13 0.17 0.19 0.32 0.33 0.30 0.39 0.43 0.41 0.43 0.41 0.38 0.37 0.38 0.36 0.39 0.37 0.35 0.35 0.37 0.39 0.43 0.46 0.48 0.51 0.52 0.52 0.50 0.53 0.56 0.57 0.57 0.58 0.58 0.58 0.58 0.56 0.55 0.54 0.54 0.56 0.56
0.17 0.18 0.16 0.14 0.14 0.17 0.23 0.30 0.33 0.36 0.35 0.36 0.36 0.37 0.38 0.37 0.39 0.36 0.35 0.34 0.36 0.37 0.37 0.40 0.40 0.42 0.48 0.53 0.55 0.51 0.54 0.57 0.57 0.55 0.58 0.57 0.55 0.55 0.56 0.57 0.57 0.57 0.56 0.56
0.17 0.20 0.16 0.18 0.16 0.20 0.20 0.22 0.22 0.23 0.26 0.26 0.27 0.29 0.34 0.38 0.34 0.34 0.34 0.35 0.34 0.35 0.38 0.39 0.37 0.41 0.47 0.52 0.55 0.59 0.59 0.58 0.58 0.59 0.58 0.58 0.57 0.56 0.57 0.57 0.57 0.56 0.57 0.55
0.14 0.14 0.14 0.13 0.18 0.22 0.21 0.23 0.24 0.23 0.24 0.26 0.24 0.25 0.26 0.30 0.33 0.31 0.35 0.39 0.37 0.34 0.36 0.36 0.39 0.43 0.48 0.51 0.54 0.61 0.63 0.62 0.61 0.57 0.56 0.55 0.55 0.53 0.51 0.50 0.47 0.49 0.49 0.48
Wind_Speed
17 18 18 19 20 19 15 15 14 12 14 16 19 21 20 19 19 18 18 17 18 18 18 18 18 19 20 20 20 21 21 21 22 22 23 24 25 25 26 27 27 28 28 28
17 20 19 16 16 18 18 19 18 18 15 17 20 23 21 21 21 21 20 20 20 19 20 20 20 20 21 21 22 23 23 24 24 25 25 26 26 27 28 28 30 30 30 31
21 17 20 18 18 18 19 20 19 18 17 20 20 22 19 19 21 20 20 21 21 21 20 20 20 21 21 22 23 24 25 25 25 26 26 26 27 28 28 29 31 32 32 33
22 22 20 19 21 21 21 20 21 19 17 18 16 20 20 20 20 20 20 20 20 21 21 21 21 20 21 22 23 24 26 26 27 27 28 29 29 28 30 30 30 32 34 34
22 21 22 22 21 21 20 18 18 18 20 20 20 20 21 19 20 20 20 21 20 19 19 20 21 21 23 23 24 25 26 27 29 29 30 31 31 31 30 31 31 32 34 35
22 22 22 22 20 21 20 18 18 19 20 23 23 23 23 20 20 18 16 15 15 15 16 17 18 19 20 22 24 24 25 26 27 29 30 31 32 32 32 32 32 33 33 35
25 26 23 22 19 19 22 19 18 19 19 24 20 22 28 20 19 19 20 20 19 19 19 22 23 23 24 23 23 24 24 25 26 27 28 30 31 31 32 32 32 33 34 35
27 26 27 28 27 24 25 23 20 20 20 22 21 25 25 24 22 21 22 21 22 24 25 27 26 24 22 23 23 24 24 25 26 26 27 28 29 30 30 31 31 33 34 35
26 27 25 25 25 25 25 28 25 23 23 21 25 28 29 28 28 27 26 25 25 22 21 22 23 23 23 24 25 25 25 25 25 25 25 25 26 27 28 30 31 32 32 33
28 28 25 26 26 28 28 24 23 25 23 25 28 28 28 23 26 28 25 24 24 23 23 23 23 24 24 24 24 24 24 24 24 25 26 26 27 28 30 31 32 33 34 34
27 28 26 27 30 28 26 29 27 25 26 24 27 28 26 23 19 19 20 19 19 19 22 22 22 21 22 24 23 23 24 26 27 29 29 30 30 30 32 33 34 34 35 35
28 25 29 30 27 26 29 30 31 27 26 27 27 37 27 22 22 21 21 24 27 26 24 22 22 23 24 24 26 28 31 31 33 34 35 34 34 35 36 36 36 36 36 36
22 23 23 25 27 28 30 30 30 31 27 30 27 34 23 21 21 22 24 25 25 25 26 27 27 28 29 31 34 36 36 37 38 38 38 38 38 38 37 37 36 36 36 36
23 24 25 26 19 21 25 28 30 30 29 38 37 42 41 36 33 32 33 32 32 33 34 34 34 34 37 38 39 40 41 41 42 42 41 41 41 41 39 38 37 37 36 36
26 27 29 31 31 28 27 26 28 32 35 33 40 39 47 39 38 37 38 36 37 37 38 39 39 40 41 41 42 43 45 45 45 45 44 43 42 41 39 39 39 38 37 36
31 30 30 33 34 34 36 35 35 36 38 39 43 43 43 42 41 41 41 37 39 40 42 42 42 42 43 43 45 45 45 45 44 43 43 42 40 40 40 40 39 38 37 36
28 28 28 36 31 32 34 41 38 41 41 41 41 44 38 39 40 42 41 41 45 45 44 43 42 42 42 42 41 43 43 43 42 42 41 40 39 39 39 39 39 38 38 37
31 30 30 32 28 34 37 34 38 40 41 39 41 43 46 46 47 46 38 41 44 42 42 42 41 41 41 42 42 43 43 43 42 41 40 40 39 40 39 38 38 37 37 37
38 33 32 32 33 36 38 39 33 34 41 37 39 42 44 41 40 43 35 36 38 39 40 40 41 43 44 43 43 42 41 41 41 41 40 40 39 38 38 37 37 37 37 37
37 38 36 36 35 37 46 43 39 36 42 39 39 38 40 40 40 42 39 40 42 42 43 45 46 47 47 47 46 45 43 42 41 41 40 40 39 39 39 39 38 38 39 39
27 30 36 37 37 37 42 42 38 36 39 36 34 35 36 39 41 44 44 44 45 46 48 48 49 50 49 48 47 47 45 44 43 41 40 40 39 40 40 40 40 40 40 40
32 29 31 32 34 39 38 36 36 35 35 37 39 41 42 43 45 44 45 45 48 50 50 51 50 50 49 48 48 46 46 45 43 42 41 40 40 41 41 41 41 41 40 40
36 37 33 33 32 32 32 34 34 34 34 36 37 39 40 42 43 44 45 47 47 47 48 48 49 49 48 47 47 46 45 43 43 42 41 40 41 41 41 40 39 38 37 36
36 35 36 37 43 45 42 41 40 41 42 42 42 43 43 43 44 45 46 46 45 45 46 46 46 46 45 44 44 43 42 40 39 37 37 37 36 35 34 31 30 28 27 27
37 34 37 40 43 42 43 43 44 44 46 48 49 48 48 47 49 49 49 49 49 50 47 46 46 44 43 41 38 37 37 34 33 32 31 29 28 25 23 22 20 20 19 18
40 41 40 42 42 41 43 42 44 45 44 43 44 46 47 47 49 50 49 49 50 50 49 47 45 42 40 39 36 34 31 29 27 26 25 23 21 19 17 15 14 14 15 16
Wind_Direction
228 230 229 230 234 238 245 253 253 248 245 254 254 258 259 261 258 255 256 258 260 263 264 261 258 255 256 257 258 259 261 263 263 264 263 263 263 263 263 261 261 259 259 259
230 235 235 234 239 236 241 250 251 257 252 257 262 262 261 261 257 255 258 261 263 266 265 264 260 259 257 259 260 262 263 265 265 266 266 266 265 265 264 263 261 262 260 260
233 238 232 233 237 238 242 245 251 255 261 257 265 264 257 258 256 256 258 262 264 265 266 266 263 259 260 261 262 264 266 267 268 268 267 268 268 267 266 265 264 262 262 261
238 236 235 235 241 238 247 250 246 256 262 257 263 265 260 265 263 256 261 264 265 266 267 266 265 264 263 264 266 268 268 269 270 270 268 266 267 268 268 268 266 265 263 262
238 235 236 238 238 238 245 250 246 249 255 264 253 262 259 258 261 259 265 270 268 269 266 266 266 268 267 266 268 271 272 271 272 270 270 268 267 268 270 270 269 267 266 263
240 241 240 239 242 244 239 245 247 250 254 258 250 253 261 256 260 263 257 265 268 272 274 273 275 276 274 271 272 273 274 274 273 274 272 269 268 268 270 270 269 269 268 266
238 240 241 240 239 242 242 241 252 256 252 253 262 256 257 263 264 263 263 270 270 267 270 276 275 275 276 273 274 275 275 276 277 277 276 272 270 270 270 271 270 270 270 268
237 241 234 239 239 238 239 238 240 247 248 257 263 255 262 261 266 267 268 269 267 271 271 275 275 272 270 272 275 276 275 277 279 279 278 276 273 272 273 273 274 273 272 271
239 244 241 240 242 237 240 242 248 257 257 261 255 260 266 264 269 274 273 274 274 274 277 277 273 273 272 274 275 275 275 278 279 280 280 280 277 275 275 276 276 276 275 273
241 247 246 243 242 244 241 246 244 246 250 254 258 265 260 269 268 271 271 274 275 277 280 278 276 275 274 274 274 274 275 278 280 280 282 282 280 278 278 278 279 278 277 275
237 240 244 242 241 238 241 243 246 246 245 250 261 259 265 265 270 268 273 277 278 279 281 281 278 274 273 273 271 271 276 280 282 281 283 283 282 280 280 279 280 280 278 276
238 244 242 242 246 247 244 245 241 245 251 252 254 260 255 263 263 270 273 276 280 284 282 280 277 274 275 273 273 274 279 280 282 284 282 282 282 281 281 280 280 279 279 277
241 242 244 250 248 249 247 246 247 251 252 249 248 258 253 262 263 268 270 275 276 277 276 278 278 277 277 278 276 277 278 281 283 284 282 281 281 280 279 279 279 279 279 277
234 238 240 242 246 252 246 247 247 245 249 253 252 261 260 263 269 272 275 273 274 275 276 278 279 278 280 281 280 278 279 280 283 283 282 281 281 279 277 277 278 279 279 278
240 242 242 247 253 256 256 255 257 256 257 255 260 260 264 266 269 271 271 274 276 276 277 278 279 281 280 280 281 280 280 281 282 281 281 280 280 277 275 276 277 278 278 277
242 249 246 252 251 252 255 256 254 253 255 257 258 260 263 269 270 270 271 274 274 275 278 279 279 280 281 280 281 282 282 282 281 280 281 280 277 276 276 276 276 277 277 276
243 246 249 254 253 253 253 251 253 257 258 258 258 263 268 270 270 271 275 276 277 278 279 279 280 282 282 282 282 282 283 283 281 280 281 280 278 277 276 276 275 275 275 275
246 249 251 255 254 250 255 256 256 258 261 262 264 267 269 271 272 272 275 274 276 277 278 278 280 283 285 285 285 284 283 282 281 280 280 280 278 277 277 276 276 275 275 275
245 248 253 254 252 261 264 260 262 266 265 265 266 267 268 272 274 272 275 275 277 278 279 279 282 284 285 285 285 285 283 282 280 279 279 278 277 276 276 276 276 276 276 275
245 246 248 255 256 257 261 265 267 269 267 270 267 268 270 272 270 272 275 275 275 277 278 281 282 283 283 284 283 283 282 280 279 279 279 278 277 276 276 276 276 276 276 276
248 250 248 253 256 261 262 265 268 265 267 267 270 271 270 269 269 273 275 274 273 275 278 279 281 283 282 282 281 279 279 278 278 278 277 277 277 276 276 276 276 276 276 276
249 251 253 255 258 262 266 268 261 266 266 268 269 269 271 271 272 273 274 275 276 277 280 281 282 280 280 280 279 277 277 277 276 276 275 275 276 276 276 277 277 276 276 276
254 252 257 254 259 261 264 265 268 269 269 272 273 273 274 273 274 274 276 278 278 279 280 281 282 282 281 279 278 276 275 275 274 274 274 275 276 277 277 276 276 276 275 275
258 259 258 263 262 266 267 267 268 270 272 271 273 274 275 274 276 277 278 278 279 279 281 282 282 282 281 281 278 276 274 273 272 271 274 275 274 276 275 274 274 274 275 275
256 261 262 264 266 268 267 267 268 271 274 273 273 274 274 274 275 277 278 277 278 279 279 280 280 279 279 279 278 274 272 267 268 271 272 270 272 271 269 270 271 273 276 276
258 262 263 265 267 268 269 269 271 273 273 275 276 275 274 274 273 276 276 277 278 278 277 277 278 277 275 274 273 271 267 260 265 269 265 264 261 261 262 258 268 275 276 276